Lapse_Rate
0.2 -0.1 -0.3 -0.5 -0.7 -0.9 -1.2 -1.4 -1.5 -1.3 -1.4 -1.5 -1.7 -2.0 -2.5 -3.2 -3.5 2.8 6.7 7.0 7.5 3.2 2.5 9.2 9.3 9.2 9.1 8.3 8.4 8.0 6.5 6.5 6.5 6.5 6.5 7.0 6.5 7.6 8.1 7.4 7.7 8.1 8.0 8.5 9.0
0.0 -0.2 -0.4 -0.8 -0.8 -0.9 -1.1 -1.3 -1.7 -1.7 -1.9 -1.9 -2.1 -2.3 -2.6 -3.3 2.2 6.6 7.7 4.1 3.0 2.7 7.8 8.8 8.3 8.6 7.9 7.5 7.6 6.6 6.5 6.5 6.5 6.5 6.5 6.8 6.7 7.1 7.0 7.0 7.2 7.7 8.5 8.9 8.9
0.0 -0.2 -0.5 -0.7 -0.8 -1.0 -1.3 -1.6 -1.8 -2.1 -2.3 -2.4 -2.4 -2.6 -2.7 -2.2 6.7 8.4 4.5 3.1 2.9 3.5 8.7 9.3 8.9 8.3 7.1 7.5 7.2 6.8 6.5 6.5 6.9 7.1 5.5 7.1 6.8 7.5 6.8 6.5 7.0 7.2 7.9 8.5 8.6
-0.3 -0.3 -0.6 -0.9 -0.9 -1.3 -1.7 -2.1 -2.5 -2.8 -3.0 -2.8 -2.7 -2.8 -2.7 3.2 6.5 7.5 1.9 2.6 2.2 6.7 9.3 8.8 8.4 7.4 6.6 6.5 7.2 6.5 6.7 6.8 7.0 7.3 7.1 6.5 7.2 6.9 5.8 6.4 7.4 8.1 8.4 8.5 8.3
-0.5 -0.8 -1.0 -1.3 -1.5 -1.7 -2.1 -2.8 -3.3 -3.5 -3.5 -3.2 -3.0 -2.8 1.0 7.7 8.0 5.5 1.9 2.6 6.2 7.0 8.8 8.4 7.7 7.4 6.5 6.6 6.8 6.5 6.5 7.0 7.3 7.3 7.2 7.3 6.7 6.7 7.1 7.5 8.3 8.4 8.4 8.3 8.3
-0.7 -1.0 -1.1 -1.5 -1.8 -2.1 -2.6 -3.5 -4.3 -4.4 -4.0 -3.4 -3.0 -3.2 4.4 6.9 9.6 7.4 7.7 7.1 9.0 9.1 8.8 8.7 8.0 8.1 7.2 6.8 6.5 6.0 6.9 6.8 7.1 7.1 7.1 6.7 6.7 7.1 7.2 8.0 7.8 8.0 8.1 8.3 8.3
-0.9 -1.1 -1.2 -1.6 -2.0 -2.4 -3.1 -4.1 -4.7 -4.4 -4.2 -3.6 -3.0 1.0 8.3 7.9 9.9 10.0 9.8 9.3 9.6 9.3 8.5 8.9 8.8 7.9 7.7 6.5 7.5 7.1 6.5 6.5 6.7 6.9 6.6 7.1 6.5 6.5 5.2 7.8 7.6 7.8 7.9 8.1 7.8
-0.9 -1.2 -1.4 -1.8 -2.2 -2.9 -3.6 -4.4 -4.6 -3.1 -3.8 -3.6 -3.0 4.2 7.7 9.7 9.8 9.7 9.8 9.4 9.7 9.7 9.2 9.2 9.1 8.2 7.6 7.8 7.0 6.5 6.5 6.5 6.5 6.8 6.8 6.8 6.5 6.5 7.4 6.8 7.2 7.6 7.8 7.9 8.2
-0.8 -1.2 -1.6 -1.9 -2.6 -3.4 -4.2 -4.7 -3.8 -1.9 -2.9 -3.0 1.2 6.0 7.4 5.5 9.0 9.6 9.7 8.9 9.2 9.3 9.2 9.3 8.7 7.6 7.5 6.5 6.5 6.5 6.5 6.5 6.5 6.7 6.5 6.5 6.5 6.7 7.5 7.3 6.5 7.3 7.6 7.7 7.9
-0.9 -1.5 -2.0 -2.3 -2.8 -3.8 -4.6 -5.4 -2.5 -2.2 -0.1 3.6 6.2 7.9 8.4 8.0 9.0 9.4 9.7 9.3 8.6 8.5 8.1 7.9 7.5 6.5 6.5 6.5 6.5 6.5 6.5 6.5 6.5 6.5 6.5 6.5 6.5 6.5 7.2 7.2 7.0 7.2 7.5 7.6 7.8
-0.9 -1.6 -2.0 -2.5 -3.3 -4.0 -2.0 5.8 6.2 7.5 8.5 7.8 7.8 7.7 8.0 9.0 9.4 8.9 9.3 8.8 8.5 7.8 6.5 7.1 6.5 6.5 6.5 6.5 6.5 6.5 6.5 6.5 6.5 6.5 6.5 6.5 6.5 6.5 6.9 7.1 7.0 7.1 6.9 7.3 7.5
-0.8 -1.5 -2.3 -2.8 -3.8 -4.3 -2.4 8.4 8.5 8.9 7.0 8.5 8.5 8.4 8.8 8.9 7.6 8.4 9.3 7.6 7.1 6.5 6.6 6.5 6.5 6.5 6.5 6.5 6.5 6.5 6.5 6.5 6.5 6.5 6.5 6.5 6.5 6.5 6.5 6.7 7.1 7.1 6.4 7.5 7.4
-0.7 -1.3 -2.4 -3.4 -4.5 -0.4 7.6 9.0 9.9 9.7 7.1 7.6 8.3 8.2 8.2 8.6 7.5 7.6 8.5 7.8 6.6 6.5 6.5 6.5 6.5 6.5 6.5 6.5 6.5 6.5 6.5 6.5 6.5 6.5 6.5 6.5 6.5 6.5 6.4 4.8 7.1 7.4 6.7 7.6 7.4
-0.4 -1.3 -2.4 -4.9 0.9 8.4 8.8 9.8 10.0 9.8 6.5 6.5 6.9 7.8 8.4 8.3 6.8 8.6 8.7 7.8 6.6 6.5 6.5 6.5 6.6 6.5 6.5 6.5 6.5 6.5 6.5 6.5 6.5 6.5 6.5 6.5 6.5 6.5 6.5 6.5 6.5 7.0 7.4 7.3 7.0
-0.1 -1.3 -2.6 -3.5 3.2 7.5 9.3 10.1 10.0 9.0 6.5 6.5 6.8 8.9 8.3 7.3 7.3 7.5 8.8 7.9 6.5 6.5 6.5 6.5 6.5 6.5 6.5 6.5 6.5 6.5 6.5 6.5 6.5 6.5 6.5 6.5 6.5 6.5 6.5 6.5 6.5 6.6 7.2 7.6 8.0
-0.8 -1.4 -3.2 5.3 2.8 7.0 10.1 10.0 9.2 6.5 6.5 6.5 6.9 6.6 6.5 7.0 7.1 7.6 7.6 8.1 7.8 6.5 6.5 6.5 7.0 6.5 6.5 6.5 6.5 6.5 6.5 6.5 6.5 6.5 6.5 6.5 6.5 6.5 6.5 6.5 6.5 6.5 7.1 7.5 7.7
-2.3 -2.3 -3.1 2.6 8.5 9.9 10.1 8.8 6.5 6.5 6.5 6.5 6.5 6.5 6.5 6.5 6.5 6.5 6.5 6.5 6.5 6.5 6.5 6.5 6.5 6.5 6.6 6.5 6.5 6.5 6.5 6.5 6.5 6.5 6.5 6.5 6.5 6.5 6.5 6.5 6.5 6.5 7.0 7.5 7.8
-2.9 -4.0 1.4 4.5 9.4 9.8 9.3 6.7 6.5 6.5 6.5 6.5 6.5 6.5 6.5 6.5 6.5 6.5 6.5 6.5 6.5 6.5 6.5 6.5 6.5 6.5 6.5 6.5 6.5 6.5 6.5 6.5 6.5 6.5 6.5 6.5 6.5 6.5 6.5 6.8 7.0 7.2 7.3 3.3 7.5
-3.7 8.0 7.6 9.5 7.9 9.9 8.0 6.5 6.5 6.5 6.5 6.5 6.5 6.5 6.5 6.5 6.5 6.5 6.5 6.5 6.5 6.5 6.5 6.5 6.5 6.5 6.5 6.5 6.5 6.5 6.5 6.5 6.5 6.5 6.5 6.5 6.5 6.5 6.5 6.5 6.6 6.8 6.7 5.1 6.5
2.4 8.0 9.1 10.0 9.9 9.1 6.7 6.5 6.5 6.6 6.5 6.5 6.5 6.5 6.5 6.5 6.5 6.5 6.5 6.5 6.5 6.5 6.5 6.5 6.5 6.5 6.5 6.6 6.5 6.5 6.5 6.5 6.5 6.5 6.5 6.5 6.5 6.5 6.5 6.5 6.5 6.5 4.9 6.7 7.5
5.6 8.0 9.3 10.0 9.8 8.0 6.5 6.5 6.5 7.2 7.0 6.5 6.5 6.5 6.5 6.5 6.5 6.5 6.5 6.5 6.5 6.5 6.5 6.5 6.5 6.5 6.5 6.5 6.5 6.5 6.5 6.5 6.5 6.5 6.5 6.5 6.5 6.5 6.5 6.5 6.5 6.5 6.0 5.5 7.1
8.8 6.6 9.5 10.0 7.0 7.1 6.5 6.5 1.9 6.6 7.3 6.5 6.5 6.5 6.5 6.5 6.5 6.5 6.5 6.5 6.9 6.5 6.5 6.5 6.5 6.5 6.5 6.5 6.5 6.5 6.5 6.5 6.5 6.5 6.5 6.5 6.5 6.5 6.5 6.5 6.6 6.9 6.3 2.3 1.8
8.2 8.1 9.4 9.3 6.5 6.5 6.5 6.5 6.7 6.5 6.5 6.5 6.5 6.5 6.5 6.5 6.5 6.5 6.5 6.7 6.9 6.5 6.5 6.5 6.5 6.5 6.5 6.5 6.5 6.5 6.5 6.5 6.5 6.5 6.5 6.5 6.5 6.5 6.5 6.5 6.8 6.9 5.8 5.3 7.3
8.3 6.5 7.9 8.3 8.0 6.6 6.5 6.5 6.5 7.2 6.5 6.9 6.5 6.6 6.5 6.5 6.5 6.5 6.5 6.5 6.9 6.7 4.6 6.1 6.5 6.5 6.5 6.5 6.5 6.5 6.5 6.5 6.5 6.5 6.5 6.5 6.5 6.5 6.5 6.5 6.6 6.9 4.0 3.4 7.3
8.4 6.8 7.6 6.5 6.6 6.5 6.5 6.5 6.5 6.5 6.8 7.0 6.5 6.5 6.5 6.5 6.5 6.5 6.5 6.5 6.6 4.4 6.5 6.5 6.5 6.5 6.5 6.5 6.5 6.5 6.5 6.5 6.5 6.5 6.5 6.5 6.5 6.5 6.5 6.5 6.6 7.5 7.3 6.8 7.3
7.8 7.4 8.0 7.4 7.3 6.5 6.5 6.5 6.5 6.5 6.5 6.5 6.5 6.5 6.5 6.5 6.5 6.5 6.5 6.5 6.5 6.5 6.5 6.5 6.5 6.5 6.5 6.5 6.5 6.5 6.5 6.5 6.5 6.5 6.5 6.5 6.5 6.5 6.7 5.8 6.8 7.0 6.9 7.1 7.3
9.0 9.0 8.2 6.5 6.6 6.5 6.5 6.5 6.5 6.5 6.8 7.0 6.6 6.5 6.5 6.5 7.1 7.3 7.4 7.2 6.7 6.5 6.5 6.5 6.5 6.5 6.5 6.5 6.5 6.5 6.5 6.5 6.5 6.5 6.5 6.5 6.5 6.5 6.5 6.5 6.5 6.8 3.5 6.7 7.5
Wind_Speed
16 16 16 15 15 15 15 14 14 14 13 14 14 14 14 16 21 7 11 4 12 16 5 12 13 16 14 17 17 3 4 3 5 11 6 11 11 11 13 10 11 19 18 20 24
16 16 16 16 16 16 16 16 16 15 15 15 14 13 14 13 11 17 13 10 11 12 12 14 13 14 13 13 9 5 2 6 8 6 7 9 4 12 11 13 14 19 21 19 21
17 17 18 17 17 18 18 18 18 17 16 15 15 14 13 13 8 6 22 17 13 13 16 16 16 12 12 9 14 10 8 6 23 22 4 23 10 14 15 3 4 20 19 19 17
17 18 18 18 19 19 21 21 19 17 16 15 14 13 11 6 3 6 11 12 12 13 15 16 16 14 13 11 8 5 16 3 8 8 25 6 6 14 16 10 13 21 20 19 15
19 19 19 20 20 21 21 21 20 18 16 14 12 10 8 8 12 11 14 10 11 13 17 15 14 14 16 8 3 14 17 1 6 5 8 2 6 9 13 1 15 21 18 17 14
20 21 21 21 23 23 23 22 20 18 15 13 10 6 6 11 11 13 13 12 13 15 15 16 14 13 14 9 2 8 19 3 5 7 2 7 4 8 8 6 13 18 18 15 13
22 22 23 24 24 23 24 24 21 16 12 11 8 5 11 12 1 11 13 13 15 16 16 15 16 14 13 15 10 14 9 24 16 3 6 6 2 6 11 12 14 17 16 17 11
22 23 25 25 24 23 23 23 21 16 8 8 7 8 7 17 7 10 13 13 15 14 17 13 12 12 16 16 5 14 11 8 17 21 9 6 7 20 16 7 13 16 14 16 16
23 24 25 26 26 25 23 23 18 8 4 6 6 9 12 7 12 12 12 13 14 11 9 9 9 14 18 14 15 10 1 10 3 19 9 10 3 22 14 11 6 14 14 13 16
24 26 27 27 26 26 29 14 5 6 6 8 11 9 12 13 14 14 12 12 11 12 12 11 9 14 15 14 12 2 11 6 18 8 9 14 16 19 16 15 16 12 16 14 18
25 26 27 28 29 24 15 3 4 6 12 13 9 12 9 15 13 15 13 14 13 13 14 16 13 15 19 17 20 5 9 10 12 13 10 7 12 19 19 17 14 9 10 15 13
25 27 29 30 30 28 8 6 6 8 10 19 23 20 16 10 10 13 15 13 14 15 16 15 16 18 18 18 18 14 11 11 7 9 11 7 11 21 20 18 19 18 10 16 14
25 26 29 33 34 12 11 12 7 10 8 15 22 22 18 12 15 17 17 18 17 17 16 18 17 19 17 16 16 12 11 3 7 4 9 10 10 8 5 9 17 20 16 19 16
27 26 26 36 7 10 9 6 7 8 6 13 14 17 21 15 17 17 20 16 13 16 18 18 18 15 13 19 12 14 14 11 4 7 9 7 9 8 12 17 18 20 22 17 17
23 27 26 10 12 8 9 9 9 8 5 9 11 6 12 22 1 20 20 16 19 16 14 16 16 14 16 15 12 16 18 14 15 13 11 15 10 2 10 15 15 17 22 23 22
27 22 26 2 7 14 12 9 7 6 9 9 9 9 15 18 21 13 16 15 16 20 15 17 14 14 18 16 15 14 18 17 14 9 12 17 17 10 4 19 22 17 20 24 24
34 27 12 10 4 10 8 7 6 8 2 6 9 13 14 15 19 15 17 17 16 13 16 17 17 17 9 15 15 16 13 11 12 12 15 17 14 9 21 5 5 23 19 18 18
38 36 10 8 10 11 7 6 8 12 9 6 2 9 12 15 18 16 13 15 21 21 14 13 14 21 17 17 17 16 18 13 15 6 5 17 8 5 17 24 28 14 20 10 18
39 7 5 6 15 6 7 10 7 11 10 12 6 9 11 15 13 21 17 17 18 19 19 16 17 9 18 17 18 17 15 20 22 7 4 5 10 23 9 12 12 14 21 25 32
8 9 12 6 6 6 8 14 18 16 8 6 12 14 13 16 18 18 19 18 20 20 19 17 17 15 16 14 18 19 15 11 13 19 14 6 13 11 15 14 15 14 12 19 19
5 5 8 7 6 7 10 13 16 15 7 9 14 17 18 16 14 18 19 17 18 17 18 18 13 18 14 11 17 13 17 17 16 13 16 6 9 17 19 15 14 21 21 8 16
6 5 9 7 7 8 11 19 1 12 5 6 11 15 17 16 17 16 16 16 12 17 16 16 10 13 20 15 17 18 17 17 12 14 12 11 2 12 13 17 15 21 20 14 24
6 10 8 7 8 9 15 16 4 13 14 15 11 13 14 16 15 15 18 16 7 6 1 8 13 13 17 17 17 16 20 18 19 18 12 11 3 11 3 8 3 19 26 20 12
5 5 7 7 10 15 14 14 13 10 8 14 14 12 14 14 13 15 16 20 3 7 9 5 10 15 14 16 3 16 20 22 19 14 13 13 5 10 8 12 19 21 20 18 13
5 6 11 8 8 12 13 14 14 16 7 7 9 11 15 14 13 15 17 20 12 5 8 6 13 18 20 23 7 21 12 15 21 21 17 11 4 7 5 16 11 27 28 25 15
6 7 12 13 16 15 13 14 17 16 16 15 9 13 12 10 13 15 11 14 17 17 13 14 16 18 22 24 20 13 16 27 22 24 22 14 8 2 6 12 11 16 14 16 13
9 12 9 9 14 14 12 14 15 13 12 13 12 11 12 11 15 13 15 14 17 18 18 10 13 15 21 22 22 21 15 20 21 23 21 13 11 3 7 11 17 17 15 8 14
Wind_Direction
356 353 350 347 343 339 335 331 326 322 317 312 309 309 310 314 305 240 249 233 197 176 173 252 223 244 245 258 279 215 18 160 148 170 215 250 114 79 109 135 67 119 125 124 131
356 353 350 346 343 338 332 327 321 317 313 309 307 308 311 318 283 258 238 129 135 167 214 231 224 230 240 251 275 90 216 200 162 123 280 262 107 142 138 96 107 107 114 135 132
352 350 347 344 339 331 326 321 316 311 306 303 303 305 311 308 270 251 173 156 163 190 232 246 254 235 253 251 266 100 267 15 116 129 197 270 158 92 75 5 153 130 137 145 151
350 346 342 340 333 328 323 320 314 306 298 294 295 301 307 263 315 103 134 148 159 208 229 249 249 258 248 242 257 74 298 315 70 147 184 158 146 109 113 236 231 133 145 149 171
349 345 340 332 327 324 319 316 311 301 291 285 287 296 283 231 251 141 141 142 176 204 228 241 235 240 260 270 181 58 283 174 127 146 106 171 133 131 140 289 122 135 150 159 175
346 343 336 328 325 324 321 318 311 299 280 272 273 281 246 250 97 139 170 170 198 206 230 242 241 247 281 292 173 203 254 122 144 160 151 157 128 188 135 146 127 141 164 159 174
344 339 330 327 325 324 321 318 313 305 274 257 245 240 259 239 50 157 170 192 210 203 233 234 256 283 237 266 171 217 192 10 338 202 198 117 357 11 203 171 145 161 178 160 174
340 333 329 326 324 322 319 316 310 312 261 241 224 231 258 205 222 182 189 194 212 208 240 269 246 275 279 277 262 235 81 156 309 302 140 124 312 267 217 181 169 168 174 156 160
337 328 326 324 324 321 318 314 298 320 242 197 216 224 249 118 218 201 206 204 203 219 231 277 290 248 259 247 260 212 192 127 312 287 169 138 151 258 200 194 203 173 156 157 163
331 329 326 324 323 322 319 282 281 295 216 205 260 260 239 213 195 203 200 220 204 211 213 224 241 241 243 253 253 209 114 255 157 247 271 185 176 177 184 183 182 210 164 167 163
329 327 324 322 320 323 331 233 201 198 228 235 211 235 136 218 173 193 193 208 207 214 216 214 227 231 237 234 260 255 196 180 154 193 227 242 178 164 181 177 178 180 188 170 191
329 327 324 322 317 314 285 259 31 331 291 237 242 248 266 141 174 205 184 204 203 210 214 227 227 239 248 255 250 273 260 221 186 191 207 258 240 167 174 176 176 189 190 181 191
328 328 325 323 316 291 239 290 348 306 277 267 229 229 227 183 214 196 186 211 204 217 213 231 219 223 253 254 261 276 276 317 23 258 240 261 253 130 138 340 187 193 169 206 191
327 327 329 329 300 328 284 21 278 310 278 251 202 211 208 202 238 244 179 211 235 223 227 229 248 257 219 252 260 244 242 266 195 247 275 178 271 195 164 187 239 189 180 186 196
326 324 325 321 308 282 4 320 325 269 283 130 134 113 206 200 189 202 181 207 230 230 235 238 226 246 243 251 243 259 267 244 221 232 264 263 247 114 185 197 227 194 191 185 194
325 325 329 267 212 258 300 293 265 235 248 159 137 193 208 200 229 194 190 205 231 248 238 255 267 227 249 224 248 253 262 275 275 256 259 246 249 151 86 227 217 188 204 185 191
320 317 305 300 269 342 311 266 229 250 65 191 182 171 214 195 219 207 192 201 225 223 242 246 237 259 232 260 227 235 244 242 245 242 240 284 249 139 195 191 301 183 199 189 189
316 312 248 233 293 246 261 233 248 273 236 104 342 192 197 212 209 196 210 221 220 240 256 218 229 213 224 222 242 217 228 234 236 228 2 315 359 8 180 172 200 179 182 20 207
313 271 225 226 222 255 242 225 241 226 351 350 303 236 261 211 216 224 202 222 229 217 251 268 262 249 203 204 238 227 217 248 255 188 179 261 330 337 212 166 195 206 106 167 232
312 289 242 135 198 214 236 247 274 307 335 300 290 290 268 244 216 223 216 214 228 227 216 252 274 279 187 203 219 245 254 225 243 265 263 167 232 205 252 223 208 79 28 247 169
266 248 109 143 178 229 239 247 251 250 207 276 272 277 282 285 265 233 223 249 211 240 229 233 245 268 255 190 225 212 242 257 268 239 247 161 247 212 229 219 215 152 167 286 131
298 275 131 178 223 232 243 250 305 297 303 245 268 277 290 298 288 290 287 222 241 232 234 221 247 245 259 257 209 248 221 235 244 253 268 284 278 133 178 220 214 105 80 33 290
294 298 156 210 250 241 267 252 247 277 273 268 268 269 276 276 283 290 291 295 346 305 20 296 219 243 262 250 211 217 244 234 245 256 251 272 195 35 232 129 186 92 112 216 185
279 288 195 194 246 278 288 293 301 254 243 299 305 307 292 274 264 266 277 275 155 248 31 329 260 273 248 247 286 217 219 242 255 247 243 239 221 95 341 268 135 122 131 249 134
248 302 347 294 311 330 328 317 305 296 237 234 272 261 271 268 259 263 264 275 267 179 275 271 260 269 276 276 235 269 249 262 243 258 266 240 159 169 287 233 167 150 162 185 144
292 343 340 306 299 286 273 267 273 278 274 270 241 258 283 267 279 283 308 301 287 276 214 232 253 256 268 280 281 234 243 262 220 238 256 194 254 212 358 338 211 152 140 144 150
2 338 310 287 290 287 278 275 279 292 274 313 292 302 292 289 341 322 312 301 295 300 301 267 254 239 249 255 261 259 244 256 262 220 234 232 190 135 71 339 294 146 150 227 164